Terminal Aerodrome Forecast
Issued by NWS Newport/Morehead City, NC

Home | Current Version | Previous Version | Graphics & Text | Print | Product List | Glossary On
Versions: 1 2 3 4 5 6 7 8 9 10 11 12 13 14 15
000
FTUS42 KMHX 181120
TAFEWN
TAF
KEWN 181120Z 1812/1912 VRB03KT 6SM -SHRA VCTS BKN035CB
     FM181700 20005KT P6SM VCTS OVC070CB
     FM182200 18006KT P6SM BKN070=

USA.gov is the U.S. government's official web portal to all federal, state and local government web resources and services.